Content
SEND FEEDBACK

Daily
Averages
Monthly
Summary
United States of America

DAVIE, FLORIDA


Home > North America > United States > Florida
Elevation: 20 feet     Latitude: 26 06N     Longitude: 080 12W

WEATHER
 
SELECT A DAY
Number of Records: 172,503;   Date Range: 1/1/95 - 9/16/14
 
SHARE

PRINT THIS DATA

[ ← Previous Day ]
WEATHER ALMANAC - JANUARY 31, 2013
[ Next Day → ]
[ °C ]   °F
Weather ElementAverageHighLow
Temperature66.4 °F72 °F (7:53 am)60.1 °F (11:53 pm)
Dewpoint57.7 °F70 °F (7:53 am)37.9 °F (11:53 pm)
Humidity75 %97 % (4:53 am)44 % (10:53 pm)
Barometer30.09 in30.19 in (10:53 pm)29.97 in (4:53 am)
Wind Speed6.4 mph16.1 mph (8:27 am)
Wind Gust24.2 mph (8:27 am)
Weather ElementAverage
Visibility10 mi
Wind DirectionSW (230 °)

Weather ElementTotal
Precipitation0.01 in
Cooling Degree Days1.1 (Base 65)
Growing Degree Days16.1 (Base 50)
Averaged from 27 records on January 31, 2013
WEATHER CONDITIONS BREAKOUT
WIND DIRECTION BREAKOUT
WEATHER BY HOUR - JANUARY 31, 2013
[ °C ]   °F
Local TimeTemperatureDewpointHumidityBarometerVisibilityWind DirectionWind SpeedGust SpeedPrecipitationEventsConditions
1:53 AM70.0 °F66.9 °F90 %30.00 in10.0 miSouth (190°)3.5 mphClear
2:53 AM71.1 °F68.0 °F90 %29.99 in10.0 miSouth (180°)3.5 mphClear
3:53 AM71.1 °F69.1 °F93 %29.98 in10.0 miSSW (210°)3.5 mphClear
4:53 AM70.0 °F69.1 °F97 %29.97 in10.0 miSouth (180°)5.8 mphClear
5:53 AM70.0 °F69.1 °F97 %29.99 in10.0 miSSW (200°)4.6 mphClear
6:53 AM70.0 °F69.1 °F97 %30.00 in10.0 miSouth (190°)4.6 mphClear
7:53 AM72.0 °F70.0 °F93 %30.02 in10.0 miSouth (190°)4.6 mphPartly Cloudy
8:27 AM71.6 °F68.0 °F88 %30.06 in10.0 miWNW (300°)16.1 mph24.2 mphMostly Cloudy
8:43 AM64.4 °F60.8 °F88 %30.07 in10.0 miNW (310°)10.4 mph21.9 mph0.00 inRainLight Rain
8:53 AM64.0 °F61.0 °F90 %30.09 in10.0 miWNW (300°)8.1 mph16.1 mph0.01 inRainLight Rain
9:21 AM64.4 °F60.8 °F88 %30.10 in10.0 miNW (310°)9.2 mph0.00 inOvercast
9:53 AM64.0 °F61.0 °F90 %30.11 in10.0 miWNW (300°)8.1 mph16.1 mph0.00 inOvercast
10:26 AM64.4 °F59.0 °F83 %30.12 in10.0 miNW (320°)10.4 mph19.6 mphMostly Cloudy
10:53 AM64.0 °F57.0 °F78 %30.13 in10.0 miNW (320°)10.4 mph20.7 mphMostly Cloudy
11:53 AM69.1 °F59.0 °F70 %30.11 in10.0 miVariable5.8 mphMostly Cloudy
12:53 PM66.0 °F57.0 °F73 %30.10 in10.0 miWNW (300°)6.9 mphOvercast
1:53 PM66.0 °F53.1 °F63 %30.08 in10.0 miNNW (340°)5.8 mphOvercast
2:53 PM66.0 °F52.0 °F60 %30.07 in10.0 miNNW (340°)8.1 mphOvercast
3:53 PM64.9 °F53.1 °F65 %30.09 in10.0 miNNW (330°)6.9 mphOvercast
4:53 PM66.0 °F50.0 °F56 %30.11 in10.0 miNorth (350°)5.8 mphOvercast
5:53 PM66.0 °F52.0 °F60 %30.12 in10.0 miNorth (10°)4.6 mphMostly Cloudy
6:53 PM64.9 °F51.1 °F61 %30.13 in10.0 miNNE (30°)4.6 mphMostly Cloudy
7:53 PM64.9 °F50.0 °F58 %30.15 in10.0 miCalmScattered Clouds
8:53 PM64.0 °F51.1 °F63 %30.16 in10.0 miCalmClear
9:53 PM64.0 °F43.0 °F46 %30.18 in10.0 miNNW (340°)8.1 mphClear
10:53 PM61.0 °F39.0 °F44 %30.19 in10.0 miNNW (340°)6.9 mphClear
11:53 PM60.1 °F37.9 °F44 %30.18 in10.0 miNNW (330°)5.8 mphClear
Hourly data recorded from KFXE, located miles away from Davie, Florida







STORIES FROM OUR PARTNERS